GALAXY 2

导读 | 星芒AI

GALAXY 2 是一颗由加拿大Anik F1R卫星误称而广为人知的通信卫星,实际应为Anik F1R,由Telesat Canada运营。1998年5月发射,用于北美地区的电视广播和数据传输。2001年因软件故障导致卫星失效,后被成功重启并继续运行多年。该事件凸显了卫星系统中软件可靠性的重要性。GALAXY 2在播出众多有线电视节目方面发挥了关键作用,其故障曾引发广泛的关注和影响。

基本信息
目录编号:
14365
目录名称:
GALAXY 2
国际标识:
1983-098A
轨道中心:
EARTH
卫星名称:
GALAXY 2
卫星全名:
--
卫星状态:
在轨 (已飞行15378 天)
发射日期:
1983-09-22 UTC
国别 :
美国 (US)
星等 :
--
轨道信息
数据来源 国际轨道数据 AOE轨道数据
星历时间 2025-10-28T22:20:21+0800
17小时前
查看轨道信息
2025-10-28T16:00:00+0800
23小时前
查看轨道信息
半长轴 42198.402km 42198.262km
偏心率 0.0002797 0.0002731
轨道倾角 13.777° 13.777°
近地点辐角 155.001° 156.541°
升交点赤经 343.687° 343.688°
平近点角 26.066° 289.293°
近地点 35808.464km 35808.602km
远地点 35832.07km 35831.652km
周期 1437.817分钟 1437.810分钟
每日圈数 1.001518 1.001523
详细信息
使用方式:
暂无
2D轨道图
3D轨道图
轨道高度分析图
轨道倾角分析图
轨道综合分析图
查看轨道综合分析图